[[{"header":{"parameterUnit":"m.s-1","parameterCategory":2,"la1":30.2991,"la2":30.254,"lo1":-89.0895,"lo2":-89.0444,"dy":0.0017,"dx":0.0017,"nx":28,"ny":28,"refTime":"2025-08-30T21:00:00:Z","depth":"0","parameterNumber":2,"parameterNumberName":"U-component_of_CURRENTS"},"data":[0,0,0,0,0,0,0,0,0,0,0,0,0,0,0,0,0,0,0,0,0,0,0,0,0,0,0,0,0,0,0,0,0,0,0,0,0,0,0,0,0,0,0,0,0,0,0,0,0,0,0,0,0,0,0,0,0,0,0.3159,0.316,0,0.3216,0.3216,0.3217,0.3217,0.3217,0.3217,0.3216,0.3229,0.323,0.3231,0,0,0,0,0,0,0,0,0,0,0,0,0,0.3039,0.3041,0.3159,0.316,0.3161,0.3216,0.3216,0.3217,0.3217,0.3217,0.3217,0.3216,0.3229,0.323,0.3231,0,0,0,0,0,0,0,0,0,0,0,0,0,0.3089,0.3041,0.3158,0.3171,0.3173,0.3216,0.3216,0.3217,0.3217,0.3217,0.3216,0.3216,0.3229,0.323,0.3231,0.3246,0,0,0.3234,0.3234,0,0,0,0,0,0,0,0,0.3086,0.3092,0.3168,0.317,0.3173,0.3213,0.3179,0.3226,0.3218,0.3196,0.3216,0.3216,0.3223,0.3225,0.323,0.3247,0.3247,0.3234,0.3234,0.3235,0.3235,0,0,0,0,0,0,0,0.3082,0.309,0.3177,0.317,0.3172,0.3171,0.3177,0.3188,0.3207,0.3198,0.3199,0.3213,0.3223,0.323,0.3231,0.3247,0.3234,0.3235,0.3235,0.3236,0.3304,0.3305,0,0,0,0,0,0,0.3086,0.3087,0.3175,0.3179,0.3132,0.3174,0.318,0.3197,0.3208,0.3211,0.3213,0.3213,0.3228,0.323,0.3231,0.3272,0.3235,0.3236,0.3236,0.3303,0.3304,0.3305,0,0,0,0,0,0,0.3083,0.3093,0.3173,0.3137,0.3148,0.3177,0.3195,0.3198,0.3209,0.3221,0.3222,0.3221,0.3228,0.323,0.3251,0.3271,0.3236,0.3237,0.3301,0.3303,0.3305,0.3338,0,0,0,0,0,0,0.3079,0.3092,0.3102,0.3138,0.315,0.3201,0.3196,0.32,0.322,0.322,0.3228,0.3229,0.3228,0.325,0.3252,0.3272,0.3238,0.33,0.3302,0.3304,0.3335,0.3341,0.3346,0,0,0,0,0,0.3075,0.3087,0.3103,0.3113,0.3165,0.3202,0.3208,0.3223,0.3221,0.3229,0.3239,0.3229,0.3266,0.3252,0.3254,0.3274,0.3298,0.3301,0.3304,0.3333,0.334,0.3345,0,0,0,0,0,0,0.3032,0.309,0.3107,0.3134,0.3171,0.3204,0.3213,0.3228,0.3242,0.3241,0.3244,0.3246,0.3275,0.3271,0.3255,0.3302,0.3281,0.3285,0.3303,0.3309,0.3314,0.3309,0.3238,0,0,0,0,0,0.3032,0.3057,0.3112,0.3131,0.3152,0.3185,0.3201,0.3218,0.324,0.3246,0.3253,0.3265,0.3289,0.3295,0.3311,0.3333,0.3357,0.3349,0.3354,0.3358,0.3357,0.3424,0.3435,0.3315,0.3315,0.3315,0,0,0.3018,0.3055,0.3067,0.3124,0.315,0.3183,0.3192,0.3223,0.3246,0.3245,0.3267,0.3285,0.33,0.333,0.3342,0.3327,0.3408,0.3361,0.3365,0.3362,0.3428,0.344,0.345,0.3316,0.3316,0.3316,0,0,0.3005,0.304,0.3061,0.3096,0.315,0.3178,0.3191,0.3234,0.3249,0.328,0.3293,0.3323,0.3341,0.3366,0.3379,0.3422,0.3436,0.3426,0.3443,0.3508,0.3519,0.3528,0.3586,0.36,0.3424,0.3424,0.3424,0,0.2988,0.3024,0.3069,0.3102,0.3129,0.3178,0.3205,0.3235,0.3277,0.3296,0.3287,0.3351,0.336,0.3416,0.3429,0.3434,0.347,0.3417,0.3515,0.3525,0.3534,0.3591,0.3606,0.3426,0.3426,0.3425,0.3425,0,0.2994,0.3027,0.3041,0.3102,0.3138,0.3167,0.3226,0.3256,0.3279,0.3311,0.3366,0.3392,0.3429,0.3443,0.3445,0.3519,0.3525,0.3519,0.3499,0.3548,0.3605,0.362,0.3429,0.3428,0.3427,0.3427,0,0,0.2946,0.3029,0.3033,0.3067,0.3141,0.3174,0.322,0.3281,0.3329,0.3357,0.3413,0.345,0.3473,0.349,0.3512,0.3561,0.3659,0.3564,0.3567,0.3619,0.3808,0.3739,0.3749,0.3675,0.3677,0.3679,0.3826,0,0.2937,0.2987,0.3034,0.3085,0.3122,0.3183,0.323,0.3293,0.3349,0.3416,0.3455,0.352,0.3492,0.3531,0.3572,0.3652,0.3699,0.3619,0.3753,0.3757,0.3688,0.3764,0.36,0.371,0.3841,0.3843,0.3845,0,0.293,0.2969,0.3011,0.3099,0.3121,0.3156,0.3254,0.3309,0.3414,0.3462,0.3523,0.3569,0.3651,0.3622,0.3755,0.3709,0.3753,0.3799,0.3806,0.3737,0.3716,0.368,0.3733,0.3635,0.3869,0.3867,0.3865,0,0.2883,0.2956,0.2987,0.3013,0.3117,0.3144,0.3203,0.3311,0.3386,0.3507,0.3574,0.3661,0.3733,0.3797,0.3869,0.3832,0.4019,0.3982,0.3957,0.3953,0.3835,0.3815,0.3802,0.4069,0.4068,0.4068,0.4067,0,0.2865,0.2894,0.2965,0.2986,0.3044,0.3122,0.3207,0.3287,0.3419,0.3512,0.3596,0.3685,0.3782,0.3886,0.3923,0.3995,0.4064,0.3978,0.3992,0.3842,0.3822,0.3745,0.3715,0.4073,0.4072,0.4071,0.407,0,0.2828,0.2867,0.2916,0.2999,0.3027,0.3073,0.3209,0.3279,0.341,0.3537,0.3582,0.3746,0.3872,0.3958,0.4099,0.4072,0.4034,0.4151,0.3961,0.3949,0.3778,0.3756,0.364,0.3531,0.414,0.4139,0.4138,0,0.2823,0.2838,0.2912,0.2942,0.2979,0.3056,0.3115,0.3258,0.3343,0.356,0.3616,0.3788,0.3895,0.4078,0.4074,0.4142,0.4021,0.4009,0.3885,0.3759,0.3748,0.3598,0.3504,0.3759,0.3755,0.3752,0.375,0,0.2825,0.2838,0.288,0.2923,0.2971,0.3032,0.3123,0.3189,0.3355,0.3468,0.3624,0.374,0.3901,0.3901,0.3985,0.3993,0.3797,0.3945,0.3873,0.3495,0.3275,0.318,0.3678,0.3723,0.3726,0.3727,0.3729,0.373,0.283,0.2842,0.2879,0.2914,0.2959,0.2987,0.3,0.3103,0.3215,0.3335,0.3511,0.3597,0.37,0.3789,0.3777,0.3623,0.362,0.3496,0.3502,0.3376,0.3184,0.3613,0.3629,0.3631,0.3633,0.3635,0.3636,0,0.283,0.2836,0.2871,0.2889,0.2886,0.2928,0.2988,0.2973,0.3026,0.3166,0.3268,0.3328,0.3361,0.3406,0.3336,0.3201,0.3045,0.3116,0.2873,0.2819,0.3264,0.3157,0.2999,0.2999,0.2999,0.3,0.3,0.3,0.2836,0.2838,0.2833,0.2805,0.2803,0.2744,0.2739,0.2734,0.279,0.2813,0.2826,0.2904,0.3084,0.3135,0.3,0.2913,0.2678,0.2549,0.2567,0.2898,0.2933,0.2966,0.2856,0.2638,0.2637,0.1962,0.1958,0.1954]},{"header":{"parameterUnit":"m.s-1","parameterCategory":2,"la1":30.2991,"la2":30.254,"lo1":-89.0895,"lo2":-89.0444,"dy":0.0017,"dx":0.0017,"nx":28,"ny":28,"refTime":"2025-08-30T21:00:00:Z","depth":"0","parameterNumber":3,"parameterNumberName":"V-component_of_CURRENTS"},"data":[0,0,0,0,0,0,0,0,0,0,0,0,0,0,0,0,0,0,0,0,0,0,0,0,0,0,0,0,0,0,0,0,0,0,0,0,0,0,0,0,0,0,0,0,0,0,0,0,0,0,0,0,0,0,0,0,0,0,0.0172,0.0172,0,0.0112,0.0112,0.0111,0.006,0.006,0.0059,0.0059,-0.0015,-0.0017,-0.0018,0,0,0,0,0,0,0,0,0,0,0,0,0,0.0215,0.0215,0.0172,0.0172,0.0171,0.0113,0.0112,0.0111,0.006,0.006,0.0059,0.0059,-0.0015,-0.0017,-0.0019,0,0,0,0,0,0,0,0,0,0,0,0,0,0.0178,0.0214,0.0172,0.014,0.0137,0.0113,0.0112,0.011,0.006,0.006,0.0059,0.0058,-0.0014,-0.0016,-0.0019,-0.0022,0,0,-0.0026,-0.0027,0,0,0,0,0,0,0,0,0.0181,0.0177,0.0145,0.0142,0.0139,0.0095,0.01,0.0066,0.006,0.0087,0.0059,0.0058,0.0022,0.0016,0.0004,-0.0026,-0.0029,-0.0026,-0.0028,-0.0029,-0.003,0,0,0,0,0,0,0,0.0183,0.0179,0.0147,0.0145,0.0141,0.0119,0.0114,0.0093,0.0057,0.0085,0.0082,0.0078,0.0019,0.0006,0.0002,-0.003,-0.0026,-0.0029,-0.003,-0.0031,-0.006,-0.006,0,0,0,0,0,0,0.0196,0.0181,0.0149,0.0145,0.0161,0.0119,0.0113,0.0108,0.0057,0.005,0.0079,0.0076,0.0011,0.0005,-0.0001,0.0008,-0.0029,-0.0031,-0.0033,-0.0061,-0.006,-0.0059,0,0,0,0,0,0,0.0197,0.0194,0.0151,0.0163,0.0157,0.012,0.0114,0.0107,0.0096,0.0053,0.0045,0.0076,0.001,0.0003,-0.0014,0.0004,-0.0032,-0.0034,-0.0062,-0.0061,-0.006,0.0016,0,0,0,0,0,0,0.0199,0.0195,0.0199,0.0164,0.0156,0.0148,0.0115,0.0106,0.0096,0.0092,0.0048,0.004,0.0009,-0.001,-0.0017,0.0,-0.0036,-0.0063,-0.0061,-0.006,0.0012,0.0019,0.0025,0,0,0,0,0,0.0201,0.0214,0.02,0.0196,0.0163,0.0149,0.0143,0.0113,0.0097,0.01,0.0067,0.0042,-0.0007,-0.0012,-0.0019,-0.0003,-0.0063,-0.0062,-0.006,0.001,0.0018,0.0025,0,0,0,0,0,0,0.0235,0.0209,0.0193,0.0197,0.0179,0.0141,0.0143,0.0121,0.0097,0.0092,0.0048,0.0039,0.003,0.0004,-0.0,-0.0008,-0.0038,-0.0038,0.0017,0.0025,0.0031,0.0045,-0.0038,0,0,0,0,0,0.0246,0.0247,0.0218,0.0221,0.0216,0.018,0.0172,0.0151,0.0124,0.0113,0.0082,0.0052,0.003,0.002,-0.0006,-0.0007,-0.0032,-0.0001,0.0005,0.0011,0.0017,-0.001,-0.0006,-0.0055,-0.0055,-0.0055,0,0,0.0258,0.0246,0.0245,0.0229,0.021,0.0215,0.0174,0.0167,0.0168,0.011,0.0105,0.0071,0.0033,0.0028,0.0022,0.001,0.0015,0.0013,0.0018,0.0021,-0.0008,-0.0004,0.0,-0.0053,-0.0054,-0.0054,0,0,0.029,0.0275,0.0289,0.0281,0.0263,0.0243,0.0246,0.0214,0.02,0.0189,0.0148,0.0128,0.0095,0.0073,0.0057,0.0084,0.0046,0.0077,0.0124,0.0098,0.0102,0.0105,0.0095,0.0096,0.0084,0.0084,0.0084,0,0.0307,0.0319,0.0292,0.0305,0.0306,0.0263,0.028,0.0262,0.0228,0.0222,0.0199,0.015,0.0117,0.0111,0.0119,0.0099,0.0081,0.01,0.0107,0.0109,0.0111,0.0099,0.01,0.0088,0.0088,0.0087,0.0087,0,0.035,0.036,0.037,0.0371,0.0369,0.0377,0.0352,0.0345,0.032,0.0297,0.028,0.023,0.0203,0.0191,0.0162,0.0164,0.0147,0.0116,0.009,0.012,0.0107,0.0106,0.0094,0.0092,0.0091,0.009,0,0,0.0379,0.0397,0.0399,0.0415,0.0406,0.0409,0.0416,0.0409,0.0419,0.0376,0.0383,0.0336,0.0303,0.0283,0.0242,0.022,0.022,0.0181,0.0178,0.0176,0.0175,0.0167,0.0165,0.0188,0.0187,0.0187,0.0166,0,0.0419,0.0465,0.0458,0.0499,0.0521,0.0493,0.0503,0.049,0.0473,0.047,0.0412,0.0399,0.0341,0.033,0.0299,0.0243,0.0219,0.023,0.0141,0.0138,0.0131,0.0164,0.0179,0.0161,0.0165,0.0165,0.0164,0,0.0459,0.0487,0.0537,0.0566,0.0572,0.0586,0.0599,0.0608,0.0588,0.0573,0.0545,0.0496,0.0463,0.0402,0.0322,0.0331,0.0261,0.0208,0.0206,0.017,0.0129,0.0127,0.0159,0.0013,0.0163,0.0163,0.0163,0,0.0496,0.054,0.0584,0.0595,0.0619,0.0632,0.0643,0.0638,0.0666,0.0643,0.0655,0.0589,0.0574,0.0474,0.037,0.0344,0.0281,0.0228,0.0152,0.0151,0.0133,0.013,0.0017,0.016,0.016,0.016,0.016,0,0.054,0.0575,0.0606,0.0632,0.0686,0.0681,0.0736,0.0732,0.0753,0.0801,0.0715,0.0741,0.0589,0.0532,0.0411,0.0301,0.0313,0.0172,0.0146,0.0161,0.0162,0.0007,-0.0085,0.016,0.016,0.016,0.016,0,0.0573,0.0592,0.065,0.069,0.0706,0.0748,0.0812,0.0858,0.0856,0.0919,0.0917,0.087,0.0802,0.0652,0.051,0.0374,0.0168,0.0203,0.0242,0.0221,-0.0004,-0.0091,-0.0239,-0.031,0.011,0.011,0.011,0,0.0596,0.0629,0.07,0.0746,0.0767,0.0831,0.0881,0.0908,0.0974,0.1011,0.1056,0.1004,0.1016,0.0812,0.0556,0.035,0.0187,0.0193,0.0131,-0.0003,-0.012,-0.019,-0.0244,0.0142,0.0142,0.0142,0.0142,0,0.0647,0.0668,0.0722,0.0814,0.0878,0.0963,0.1041,0.111,0.1154,0.1227,0.1323,0.134,0.1131,0.0939,0.0618,0.0455,0.0084,0.0185,0.003,-0.0113,-0.0181,-0.0264,0.0151,0.0142,0.0142,0.0142,0.0142,0.0142,0.0687,0.0734,0.0805,0.0891,0.0977,0.1086,0.1168,0.1279,0.1415,0.1545,0.1543,0.1618,0.1274,0.0859,0.0598,0.0105,0.0082,-0.0053,-0.0146,-0.0203,-0.028,0.0145,0.0113,0.0113,0.0112,0.0112,0.0112,0,0.0737,0.0793,0.0879,0.0988,0.1092,0.1122,0.1273,0.1375,0.1561,0.1719,0.1835,0.1729,0.1316,0.0854,0.0178,-0.0167,-0.03,-0.0355,-0.046,-0.05,-0.0129,-0.0137,-0.0205,-0.0205,-0.0204,-0.0204,-0.0204,-0.0204,0.0768,0.0853,0.0894,0.1062,0.1146,0.1287,0.1379,0.1551,0.1701,0.1925,0.2006,0.2031,0.1659,0.0474,-0.0308,-0.0474,-0.0734,-0.079,-0.0918,-0.0677,-0.0656,-0.0637,-0.0665,-0.0842,-0.0843,-0.1239,-0.1243,-0.1246]}],[{"header":{"parameterUnit":"m.s-1","parameterCategory":2,"la1":30.2991,"la2":30.254,"lo1":-89.0895,"lo2":-89.0444,"dy":0.0017,"dx":0.0017,"nx":28,"ny":28,"refTime":"2025-08-30T21:00:00:Z","depth":"2","parameterNumber":2,"parameterNumberName":"U-component_of_CURRENTS"},"data":[0,0,0,0,0,0,0,0,0,0,0,0,0,0,0,0,0,0,0,0,0,0,0,0,0,0,0,0,0,0,0,0,0,0,0,0,0,0,0,0,0,0,0,0,0,0,0,0,0,0,0,0,0,0,0,0,0,0,0.2421,0.2422,0,0.2446,0.2446,0.2446,0.2447,0.2447,0.2447,0.2447,0.2482,0.2483,0.2484,0,0,0,0,0,0,0,0,0,0,0,0,0,0.2377,0.2377,0.2421,0.2422,0.2422,0.2445,0.2446,0.2446,0.2447,0.2447,0.2447,0.2447,0.2482,0.2483,0.2484,0,0,0,0,0,0,0,0,0,0,0,0,0,0.2396,0.2378,0.2421,0.2427,0.2428,0.2445,0.2446,0.2446,0.2447,0.2447,0.2447,0.2447,0.2481,0.2483,0.2484,0.2496,0,0,0.2489,0.249,0,0,0,0,0,0,0,0,0.2395,0.2397,0.2426,0.2427,0.2428,0.2445,0.2443,0.2464,0.2447,0.2438,0.2447,0.2447,0.2472,0.2475,0.2476,0.2498,0.2499,0.2489,0.249,0.2491,0.2491,0,0,0,0,0,0,0,0.2394,0.2396,0.2429,0.2427,0.2428,0.2429,0.2432,0.2447,0.2454,0.2439,0.244,0.2446,0.2473,0.2475,0.2477,0.25,0.2489,0.2491,0.2491,0.2492,0.2567,0.2568,0,0,0,0,0,0,0.2395,0.2395,0.2428,0.243,0.2413,0.243,0.2433,0.2438,0.2454,0.2457,0.2446,0.2446,0.2472,0.2475,0.2478,0.2527,0.2491,0.2492,0.2493,0.2566,0.2567,0.2568,0,0,0,0,0,0,0.2394,0.2398,0.2427,0.2415,0.2419,0.2431,0.2437,0.2439,0.2462,0.2459,0.2462,0.247,0.2472,0.2476,0.2514,0.2528,0.2493,0.2494,0.2565,0.2566,0.2568,0.2604,0,0,0,0,0,0,0.2392,0.2397,0.2401,0.2415,0.242,0.2452,0.2438,0.2439,0.2465,0.2466,0.2481,0.2482,0.2472,0.2511,0.2515,0.2529,0.2495,0.2563,0.2565,0.2567,0.2601,0.2606,0.2611,0,0,0,0,0,0.2391,0.2392,0.2401,0.2405,0.2424,0.2453,0.2456,0.2463,0.2467,0.2482,0.2496,0.2483,0.2526,0.2514,0.2518,0.2533,0.2562,0.2565,0.2567,0.2599,0.2605,0.2611,0,0,0,0,0,0,0.2371,0.2394,0.2402,0.241,0.244,0.2455,0.2466,0.248,0.2502,0.2503,0.2505,0.2508,0.2547,0.2539,0.2526,0.256,0.2539,0.2543,0.2562,0.2568,0.2573,0.2584,0.2497,0,0,0,0,0,0.2371,0.2383,0.2409,0.2421,0.2436,0.2459,0.2472,0.2482,0.2503,0.2513,0.2519,0.253,0.2557,0.2563,0.2579,0.26,0.2616,0.261,0.2615,0.2619,0.2631,0.267,0.268,0.2576,0.2576,0.2576,0,0,0.2365,0.2382,0.2388,0.2419,0.244,0.2463,0.2467,0.2495,0.2516,0.2514,0.2539,0.2557,0.2571,0.2596,0.261,0.2591,0.2659,0.2622,0.2626,0.2636,0.2674,0.2684,0.2693,0.2578,0.2578,0.2578,0,0,0.2366,0.2382,0.2394,0.2419,0.2457,0.2474,0.2492,0.2517,0.2531,0.2568,0.2572,0.2604,0.2628,0.2636,0.2649,0.2693,0.2693,0.2691,0.2714,0.2751,0.276,0.2768,0.281,0.2822,0.2681,0.2681,0.2681,0,0.2362,0.2378,0.2405,0.2426,0.2445,0.2486,0.2506,0.2532,0.2564,0.2577,0.2582,0.2639,0.265,0.2692,0.2705,0.2704,0.2728,0.2689,0.2758,0.2766,0.2774,0.2815,0.2827,0.2683,0.2683,0.2683,0.2683,0,0.2369,0.2388,0.2402,0.2442,0.2467,0.2494,0.2534,0.256,0.2588,0.2608,0.2663,0.2688,0.2719,0.2726,0.2734,0.2787,0.2789,0.277,0.2743,0.2787,0.2827,0.2839,0.2686,0.2685,0.2685,0.2684,0,0,0.2347,0.2396,0.2402,0.2418,0.2476,0.2495,0.2541,0.2586,0.2628,0.2656,0.2706,0.2751,0.2768,0.2784,0.2795,0.2826,0.2904,0.2822,0.2823,0.2864,0.2999,0.2932,0.2939,0.2897,0.2899,0.2901,0.3009,0,0.235,0.2379,0.2407,0.2442,0.2462,0.2508,0.2557,0.2602,0.2652,0.2708,0.2744,0.2806,0.279,0.2827,0.2852,0.2903,0.2936,0.2877,0.2952,0.2954,0.2889,0.2951,0.2721,0.2792,0.3021,0.3023,0.3024,0,0.2346,0.2368,0.2395,0.2448,0.2463,0.2495,0.2573,0.2618,0.2707,0.2755,0.2808,0.2851,0.2916,0.2901,0.2992,0.2957,0.2985,0.3012,0.3016,0.295,0.2909,0.2784,0.2805,0.3044,0.3043,0.3041,0.304,0,0.2311,0.2358,0.2377,0.2393,0.2464,0.2489,0.2533,0.2624,0.268,0.2791,0.2856,0.2924,0.2993,0.3029,0.3081,0.3051,0.3183,0.314,0.3104,0.31,0.2917,0.2893,0.3205,0.3205,0.3204,0.3204,0.3204,0,0.2298,0.2309,0.2362,0.237,0.2418,0.2469,0.2543,0.2608,0.2716,0.2788,0.2876,0.2948,0.3033,0.3107,0.3122,0.3159,0.3213,0.3132,0.3128,0.2923,0.2899,0.3119,0.3108,0.3208,0.3207,0.3206,0.3206,0,0.2258,0.2289,0.2309,0.2373,0.2402,0.243,0.2539,0.2594,0.2715,0.2815,0.2859,0.2998,0.3092,0.3162,0.3253,0.3222,0.3257,0.3252,0.3013,0.2978,0.3139,0.3128,0.3224,0.3222,0.3221,0.322,0.322,0,0.2238,0.2251,0.2305,0.2324,0.2353,0.2416,0.2471,0.2583,0.2634,0.2824,0.2852,0.3008,0.3075,0.3194,0.3186,0.3218,0.3259,0.3014,0.29,0.3157,0.3144,0.3135,0.3126,0.2682,0.2677,0.2673,0.2669,0,0.2205,0.2228,0.2243,0.2291,0.2329,0.2377,0.2444,0.2482,0.2614,0.2697,0.2797,0.2878,0.302,0.2948,0.3017,0.2991,0.2986,0.2928,0.3275,0.2706,0.2652,0.2638,0.2646,0.2632,0.2636,0.2639,0.2641,0.2642,0.2176,0.2183,0.2212,0.224,0.2281,0.2299,0.2301,0.2359,0.2408,0.2483,0.2632,0.2673,0.2753,0.2721,0.2654,0.2615,0.2811,0.2682,0.2693,0.2708,0.2619,0.2565,0.2513,0.2516,0.2519,0.2521,0.2523,0,0.2132,0.2142,0.2166,0.2172,0.216,0.2227,0.2253,0.2214,0.2194,0.2301,0.2358,0.2228,0.2219,0.229,0.2182,0.2201,0.2154,0.2102,0.2014,0.2055,0.2091,0.1966,0.169,0.1687,0.1684,0.1681,0,0,0.2107,0.2086,0.2084,0.2028,0.2049,0.2001,0.1986,0.1939,0.1955,0.1914,0.1921,0.2116,0.2237,0.1919,0.19,0.1771,0.1886,0.1703,0.2384,0.2323,0.2354,0.2456,0.2315,0,0,0,0,0]},{"header":{"parameterUnit":"m.s-1","parameterCategory":2,"la1":30.2991,"la2":30.254,"lo1":-89.0895,"lo2":-89.0444,"dy":0.0017,"dx":0.0017,"nx":28,"ny":28,"refTime":"2025-08-30T21:00:00:Z","depth":"2","parameterNumber":3,"parameterNumberName":"V-component_of_CURRENTS"},"data":[0,0,0,0,0,0,0,0,0,0,0,0,0,0,0,0,0,0,0,0,0,0,0,0,0,0,0,0,0,0,0,0,0,0,0,0,0,0,0,0,0,0,0,0,0,0,0,0,0,0,0,0,0,0,0,0,0,0,0.0136,0.0135,0,0.0079,0.0078,0.0078,0.0037,0.0037,0.0036,0.0036,-0.0033,-0.0034,-0.0036,0,0,0,0,0,0,0,0,0,0,0,0,0,0.0171,0.0171,0.0136,0.0135,0.0134,0.0079,0.0078,0.0077,0.0037,0.0037,0.0036,0.0036,-0.0032,-0.0034,-0.0036,0,0,0,0,0,0,0,0,0,0,0,0,0,0.0138,0.017,0.0136,0.0108,0.0105,0.0079,0.0078,0.0077,0.0037,0.0037,0.0036,0.0036,-0.0031,-0.0034,-0.0036,-0.0044,0,0,-0.0044,-0.0045,0,0,0,0,0,0,0,0,0.014,0.0137,0.0113,0.011,0.0107,0.0066,0.0065,0.0036,0.0037,0.0062,0.0036,0.0036,0.0,-0.0005,-0.0016,-0.0047,-0.005,-0.0044,-0.0045,-0.0046,-0.0047,0,0,0,0,0,0,0,0.0142,0.0139,0.0112,0.0112,0.0109,0.0086,0.0081,0.006,0.0033,0.006,0.0057,0.0052,-0.0002,-0.0014,-0.0018,-0.0051,-0.0044,-0.0046,-0.0047,-0.0048,-0.0092,-0.0091,0,0,0,0,0,0,0.0154,0.0141,0.0114,0.011,0.0124,0.0086,0.008,0.0078,0.0033,0.0026,0.0053,0.0051,-0.0009,-0.0015,-0.0021,-0.0021,-0.0046,-0.0048,-0.005,-0.0092,-0.0092,-0.0091,0,0,0,0,0,0,0.0155,0.0152,0.0116,0.0125,0.0119,0.0086,0.0084,0.0077,0.0067,0.0028,0.0021,0.0049,-0.001,-0.0017,-0.0035,-0.0024,-0.005,-0.0052,-0.0092,-0.0092,-0.0091,-0.0029,0,0,0,0,0,0,0.0156,0.0153,0.0156,0.0126,0.0119,0.0109,0.0084,0.0077,0.0065,0.0062,0.0023,0.0016,-0.0011,-0.0031,-0.0037,-0.0028,-0.0054,-0.0093,-0.0092,-0.0092,-0.0032,-0.0027,-0.0022,0,0,0,0,0,0.0158,0.0168,0.0157,0.0153,0.0124,0.011,0.0104,0.0078,0.0066,0.0067,0.0039,0.0017,-0.0032,-0.0033,-0.004,-0.0031,-0.0093,-0.0092,-0.0092,-0.0034,-0.0028,-0.0023,0,0,0,0,0,0,0.0185,0.0164,0.0151,0.0153,0.0136,0.0104,0.0103,0.0084,0.0062,0.006,0.0021,0.0012,-0.0001,-0.0025,-0.0024,-0.0043,-0.0066,-0.0067,-0.002,-0.0014,-0.001,0.0006,-0.0056,0,0,0,0,0,0.0193,0.0194,0.0169,0.017,0.0165,0.0135,0.0125,0.0109,0.0085,0.0075,0.0048,0.0019,-0.0004,-0.0015,-0.004,-0.0048,-0.0073,-0.0048,-0.0043,-0.0039,-0.0031,-0.0063,-0.0061,-0.0089,-0.0089,-0.0089,0,0,0.0203,0.0192,0.0191,0.0176,0.016,0.0163,0.0128,0.0121,0.0121,0.0072,0.0065,0.0034,-0.0003,-0.0014,-0.0021,-0.0032,-0.0044,-0.0038,-0.0034,-0.0029,-0.0063,-0.006,-0.0057,-0.0089,-0.0089,-0.0089,0,0,0.0229,0.0216,0.0226,0.0219,0.0202,0.0185,0.0187,0.016,0.0146,0.0134,0.0099,0.0076,0.0041,0.0019,0.0002,0.0017,-0.002,0.0008,0.0046,0.0015,0.0018,0.0019,-0.0005,-0.0006,0.0012,0.0012,0.0012,0,0.0241,0.0252,0.0227,0.0238,0.0239,0.0201,0.0217,0.0198,0.0168,0.0163,0.0141,0.009,0.0058,0.0045,0.0049,0.0029,0.0006,0.003,0.0022,0.0023,0.0024,-0.0001,-0.0003,0.0015,0.0015,0.0015,0.0014,0,0.0276,0.0285,0.0293,0.0295,0.0292,0.0299,0.0276,0.0269,0.0245,0.0225,0.0204,0.0154,0.0127,0.011,0.0083,0.0074,0.0055,0.0031,0.0011,0.0031,0.0003,-0.0,0.002,0.0019,0.0018,0.0017,0,0,0.03,0.0315,0.0318,0.0334,0.0325,0.0329,0.0332,0.0325,0.0335,0.029,0.0294,0.0242,0.0212,0.0191,0.015,0.012,0.0102,0.0083,0.008,0.0066,0.0039,0.0024,0.0019,0.0075,0.0075,0.0075,0.002,0,0.0335,0.0376,0.0369,0.0407,0.0427,0.0403,0.0411,0.0399,0.0381,0.0375,0.0315,0.0302,0.0244,0.0234,0.0194,0.0129,0.0096,0.012,0.0017,0.0014,0.0003,0.0015,0.0042,-0.0005,0.0016,0.0016,0.0015,0,0.0369,0.0395,0.0441,0.0471,0.0477,0.049,0.0505,0.0512,0.049,0.0475,0.0444,0.0396,0.035,0.0295,0.0191,0.0209,0.0132,0.0072,0.0068,0.0032,-0.0007,-0.0023,-0.0012,0.001,0.001,0.001,0.0011,0,0.0405,0.0445,0.0487,0.0497,0.0521,0.0535,0.0547,0.0542,0.0569,0.0544,0.0554,0.0478,0.0456,0.0345,0.022,0.0206,0.0103,0.0066,-0.0023,-0.0025,-0.0033,-0.0035,-0.0012,-0.0012,-0.0012,-0.0012,-0.0012,0,0.0445,0.0478,0.0508,0.0533,0.0587,0.0584,0.0641,0.0636,0.0655,0.0698,0.0614,0.0627,0.0467,0.0386,0.0253,0.0115,0.0126,-0.001,-0.0039,-0.0011,-0.001,-0.0024,-0.0025,-0.0014,-0.0013,-0.0013,-0.0013,0,0.0477,0.0494,0.0549,0.0588,0.0606,0.0647,0.0716,0.0761,0.076,0.0814,0.0811,0.0748,0.0641,0.0473,0.0304,0.0176,0.0032,-0.0024,0.0024,0.0002,-0.0085,-0.0082,-0.0127,-0.0128,-0.0129,-0.013,-0.013,0,0.0496,0.0527,0.0596,0.064,0.0661,0.0728,0.0779,0.081,0.0872,0.0894,0.0929,0.0844,0.0799,0.0546,0.0305,0.0072,0.0036,-0.0058,-0.0089,-0.0073,-0.0096,-0.0092,-0.0088,-0.0076,-0.0076,-0.0076,-0.0076,0,0.0538,0.056,0.061,0.0701,0.0764,0.0852,0.093,0.0994,0.1037,0.1076,0.1115,0.108,0.084,0.0615,0.0293,0.0136,-0.0022,-0.0067,-0.0061,-0.0049,-0.0029,-0.005,-0.0047,-0.0077,-0.0077,-0.0076,-0.0076,-0.0076,0.0569,0.0614,0.0681,0.0769,0.0851,0.0959,0.1039,0.1125,0.1224,0.1282,0.1253,0.1201,0.0941,0.0533,0.0258,-0.0031,-0.0023,-0.0126,-0.0124,-0.0122,-0.0105,-0.0087,-0.0142,-0.0142,-0.0143,-0.0143,-0.0143,0,0.0611,0.0664,0.0747,0.0854,0.0953,0.099,0.113,0.1209,0.1324,0.1367,0.1389,0.1141,0.0886,0.0583,0.0154,-0.0102,-0.0119,-0.0178,-0.0145,-0.0142,-0.014,-0.0122,-0.0165,-0.0166,-0.0167,-0.0167,0,0,0.0633,0.0716,0.0759,0.0917,0.1,0.1134,0.1218,0.1323,0.1389,0.1427,0.1399,0.134,0.0977,0.0664,0.0318,0.0074,0.0026,0.0029,0.0076,0.016,0.0165,-0.0079,-0.0045,0,0,0,0,0]}],[{"header":{"parameterUnit":"m.s-1","parameterCategory":2,"la1":30.2991,"la2":30.254,"lo1":-89.0895,"lo2":-89.0444,"dy":0.0017,"dx":0.0017,"nx":28,"ny":28,"refTime":"2025-08-30T21:00:00:Z","depth":"4","parameterNumber":2,"parameterNumberName":"U-component_of_CURRENTS"},"data":[0,0,0,0,0,0,0,0,0,0,0,0,0,0,0,0,0,0,0,0,0,0,0,0,0,0,0,0,0,0,0,0,0,0,0,0,0,0,0,0,0,0,0,0,0,0,0,0,0,0,0,0,0,0,0,0,0,0,0.1405,0.1406,0,0.1454,0.1455,0.1456,0.1505,0.1506,0.1506,0.1507,0.1548,0.1548,0.1549,0,0,0,0,0,0,0,0,0,0,0,0,0,0.1377,0.1377,0.1405,0.1406,0.1406,0.1454,0.1455,0.1456,0.1505,0.1506,0.1506,0.1507,0.1548,0.1548,0.1549,0,0,0,0,0,0,0,0,0,0,0,0,0,0.1403,0.1377,0.1405,0.1437,0.144,0.1454,0.1455,0.1456,0.1505,0.1506,0.1507,0.1508,0.1548,0.1548,0.1549,0.1533,0,0,0.1551,0.1551,0,0,0,0,0,0,0,0,0.1402,0.1404,0.1432,0.1435,0.1438,0.1475,0.146,0.1481,0.1504,0.148,0.1507,0.1508,0.1522,0.1525,0.1532,0.1535,0.1536,0.1551,0.1551,0.1552,0.1552,0,0,0,0,0,0,0,0.14,0.1403,0.1424,0.1432,0.1436,0.1457,0.1461,0.1464,0.1494,0.1482,0.1486,0.1491,0.1524,0.1531,0.1533,0.1537,0.1551,0.1552,0.1552,0.1552,0.1641,0.1643,0,0,0,0,0,0,0.1392,0.1401,0.1423,0.1426,0.1423,0.1456,0.1462,0.1462,0.1495,0.1501,0.1491,0.1494,0.1529,0.1532,0.1535,0.1603,0.1552,0.1552,0.1553,0.1639,0.1642,0.1644,0,0,0,0,0,0,0.1391,0.1393,0.1421,0.1415,0.142,0.1456,0.1456,0.1462,0.1503,0.1501,0.1507,0.1529,0.153,0.1534,0.1571,0.1602,0.1553,0.1553,0.1637,0.164,0.1643,0.1685,0,0,0,0,0,0,0.139,0.1392,0.1411,0.1414,0.142,0.1451,0.1455,0.1463,0.1503,0.1509,0.1535,0.1538,0.1531,0.157,0.1572,0.1602,0.1554,0.1634,0.1638,0.1642,0.1681,0.1689,0.1696,0,0,0,0,0,0.1388,0.1402,0.1411,0.1415,0.1437,0.1452,0.1458,0.1486,0.1504,0.1526,0.155,0.1539,0.1595,0.1572,0.1574,0.1605,0.1633,0.1637,0.1641,0.1678,0.1688,0.1696,0,0,0,0,0,0,0.1402,0.1408,0.1419,0.1435,0.1454,0.1461,0.1488,0.1504,0.154,0.1556,0.1556,0.156,0.1604,0.1603,0.1578,0.1645,0.1615,0.162,0.1643,0.1652,0.1659,0.1663,0.1554,0,0,0,0,0,0.1411,0.1424,0.1432,0.1451,0.1461,0.1481,0.15,0.1518,0.1539,0.1558,0.1576,0.16,0.1617,0.1635,0.1647,0.168,0.1683,0.1705,0.1713,0.1719,0.1726,0.1751,0.176,0.1658,0.1658,0.1658,0,0,0.1422,0.1428,0.1437,0.1456,0.1473,0.1491,0.1496,0.153,0.1556,0.1554,0.1608,0.1623,0.1632,0.1669,0.169,0.1677,0.1754,0.1724,0.1729,0.1733,0.1756,0.1766,0.1774,0.1661,0.1661,0.166,0,0,0.1437,0.1455,0.1469,0.1485,0.1515,0.1524,0.1541,0.1568,0.1597,0.164,0.1648,0.1687,0.1717,0.173,0.1738,0.1795,0.1788,0.1808,0.1851,0.1875,0.1883,0.189,0.1919,0.1928,0.1816,0.1816,0.1816,0,0.1456,0.1465,0.1479,0.1496,0.1513,0.1541,0.1562,0.159,0.1632,0.1656,0.1668,0.1733,0.1743,0.1783,0.181,0.181,0.1826,0.1811,0.1882,0.1889,0.1896,0.1924,0.1934,0.1819,0.1818,0.1818,0.1818,0,0.1468,0.149,0.1501,0.1527,0.1552,0.1575,0.1605,0.1646,0.1684,0.1708,0.1771,0.1795,0.1834,0.1849,0.1848,0.1906,0.1905,0.1882,0.1854,0.1908,0.1935,0.1944,0.1822,0.1821,0.1821,0.182,0,0,0.1463,0.1501,0.1509,0.1525,0.157,0.1584,0.1637,0.1679,0.1721,0.1774,0.1827,0.1873,0.19,0.1913,0.1926,0.1956,0.2021,0.1951,0.1951,0.197,0.2089,0.1967,0.1965,0.2013,0.2014,0.2016,0.2093,0,0.147,0.1499,0.1521,0.1559,0.1574,0.1617,0.1659,0.1709,0.1761,0.1822,0.1863,0.1921,0.1919,0.1959,0.1987,0.2013,0.2047,0.2003,0.2042,0.2044,0.1919,0.1971,0.2021,0.2099,0.2101,0.2103,0.2104,0,0.1465,0.1486,0.1523,0.1568,0.1581,0.1617,0.169,0.1732,0.1816,0.1865,0.1931,0.1969,0.2039,0.2026,0.2099,0.2076,0.2094,0.2106,0.2109,0.1984,0.1938,0.2032,0.212,0.2119,0.2118,0.2117,0.2116,0,0.1434,0.1482,0.1511,0.1527,0.1589,0.1626,0.1668,0.1751,0.1796,0.1906,0.1959,0.2033,0.2094,0.2124,0.2164,0.2144,0.2233,0.2198,0.2104,0.2097,0.2163,0.2155,0.2245,0.2245,0.2245,0.2245,0.2244,0,0.1407,0.1432,0.1505,0.1517,0.1563,0.1617,0.1684,0.1743,0.1837,0.1889,0.1984,0.2035,0.2124,0.218,0.2193,0.2181,0.2257,0.2122,0.2107,0.2182,0.2175,0.217,0.2161,0.2247,0.2247,0.2246,0.2246,0,0.1355,0.1404,0.1439,0.1517,0.1548,0.1583,0.1681,0.1723,0.183,0.1906,0.1948,0.2066,0.2141,0.2209,0.2275,0.221,0.2214,0.219,0.2292,0.228,0.2057,0.2049,0.2085,0.2081,0.2078,0.2075,0.2073,0,0.1322,0.1339,0.1431,0.1457,0.1496,0.1563,0.1605,0.1712,0.1752,0.1897,0.1915,0.2044,0.2109,0.2112,0.2186,0.2212,0.2184,0.2168,0.2086,0.2058,0.2041,0.2038,0.2034,0.2068,0.2067,0.2067,0.2066,0,0.1257,0.1309,0.134,0.14,0.145,0.1491,0.1558,0.1577,0.1692,0.181,0.185,0.1895,0.1981,0.2033,0.2083,0.2085,0.2162,0.2134,0.214,0.2063,0.2038,0.2023,0.2024,0.2055,0.2056,0.2057,0.2058,0,0.1214,0.1221,0.1278,0.1315,0.1376,0.1387,0.1439,0.148,0.1534,0.1687,0.1698,0.1834,0.1957,0.1969,0.2001,0.2013,0.1974,0.1889,0.1906,0.1919,0.1828,0.1771,0.17,0,0,0,0,0,0.1158,0.1154,0.1184,0.1211,0.1268,0.1304,0.1386,0.1439,0.1554,0.1543,0.1615,0.1685,0.1746,0.1814,0.1795,0.1928,0.1981,0.1894,0.1893,0.1995,0.2007,0.1914,0,0,0,0,0,0,0.1118,0.1144,0.1147,0.1116,0.112,0.1164,0.1215,0.1296,0.1293,0.1426,0.1476,0.1578,0.1673,0.175,0.1763,0.1784,0.1746,0.1983,0.1978,0.1987,0.1999,0.2009,0.1917,0,0,0,0,0]},{"header":{"parameterUnit":"m.s-1","parameterCategory":2,"la1":30.2991,"la2":30.254,"lo1":-89.0895,"lo2":-89.0444,"dy":0.0017,"dx":0.0017,"nx":28,"ny":28,"refTime":"2025-08-30T21:00:00:Z","depth":"4","parameterNumber":3,"parameterNumberName":"V-component_of_CURRENTS"},"data":[0,0,0,0,0,0,0,0,0,0,0,0,0,0,0,0,0,0,0,0,0,0,0,0,0,0,0,0,0,0,0,0,0,0,0,0,0,0,0,0,0,0,0,0,0,0,0,0,0,0,0,0,0,0,0,0,0,0,0.0123,0.0122,0,0.0087,0.0086,0.0086,0.0062,0.0062,0.0062,0.0062,0.0018,0.0017,0.0016,0,0,0,0,0,0,0,0,0,0,0,0,0,0.0141,0.0141,0.0123,0.0122,0.0122,0.0087,0.0086,0.0085,0.0062,0.0062,0.0062,0.0062,0.0019,0.0017,0.0016,0,0,0,0,0,0,0,0,0,0,0,0,0,0.0121,0.0141,0.0123,0.0107,0.0105,0.0087,0.0086,0.0085,0.0062,0.0062,0.0062,0.0062,0.0019,0.0017,0.0016,0.0008,0,0,0.0011,0.001,0,0,0,0,0,0,0,0,0.0123,0.0121,0.0109,0.0108,0.0106,0.0079,0.0077,0.0059,0.0062,0.0077,0.0062,0.0061,0.0039,0.0036,0.0028,0.0006,0.0004,0.0011,0.001,0.0009,0.0009,0,0,0,0,0,0,0,0.0124,0.0122,0.0107,0.0109,0.0107,0.0091,0.0088,0.0073,0.0058,0.0076,0.0074,0.0072,0.0038,0.0029,0.0026,0.0003,0.0011,0.0009,0.0008,0.0008,-0.0032,-0.0032,0,0,0,0,0,0,0.0132,0.0123,0.0109,0.0106,0.0115,0.0091,0.0088,0.0087,0.0058,0.0054,0.0072,0.0071,0.0032,0.0028,0.0025,0.0023,0.0009,0.0008,0.0007,-0.0031,-0.0032,-0.0032,0,0,0,0,0,0,0.0133,0.0131,0.011,0.0115,0.0111,0.0091,0.009,0.0087,0.0081,0.0056,0.0051,0.0071,0.0032,0.0027,0.0015,0.0021,0.0007,0.0005,-0.0031,-0.0031,-0.0032,0.0013,0,0,0,0,0,0,0.0133,0.0132,0.0135,0.0115,0.0111,0.0105,0.0091,0.0086,0.008,0.0078,0.0053,0.0049,0.0031,0.0018,0.0014,0.0018,0.0004,-0.0031,-0.0031,-0.0032,0.0012,0.0015,0.0017,0,0,0,0,0,0.0134,0.0141,0.0136,0.0134,0.0116,0.0106,0.0102,0.0086,0.008,0.0081,0.0063,0.005,0.0014,0.0017,0.0012,0.0016,-0.0031,-0.0031,-0.0032,0.0011,0.0014,0.0017,0,0,0,0,0,0,0.0151,0.0139,0.0132,0.0135,0.0124,0.0102,0.0103,0.0091,0.0077,0.0077,0.0051,0.0046,0.0036,0.0019,0.0022,0.0003,-0.0012,-0.0013,0.0022,0.0025,0.0027,0.0043,0.0003,0,0,0,0,0,0.0157,0.016,0.0143,0.0146,0.0143,0.0123,0.0118,0.0108,0.0092,0.0086,0.0068,0.0048,0.0031,0.0023,0.0005,-0.0003,-0.0024,-0.0005,-0.0003,-0.0,0.0008,-0.002,-0.0019,-0.0032,-0.0032,-0.0032,0,0,0.0164,0.0159,0.0159,0.015,0.014,0.0143,0.012,0.0116,0.0117,0.0084,0.0081,0.0058,0.003,0.002,0.0014,0.0008,-0.0009,-0.0,0.0002,0.0009,-0.002,-0.0019,-0.0017,-0.0032,-0.0032,-0.0032,0,0,0.0182,0.0176,0.0184,0.018,0.017,0.0159,0.0161,0.0143,0.0134,0.0126,0.0102,0.0084,0.0058,0.004,0.0028,0.0033,0.0005,0.0024,0.0053,0.0026,0.0027,0.0028,0.0,-0.0002,0.0027,0.0027,0.0027,0,0.0192,0.0201,0.0185,0.0193,0.0197,0.0171,0.0183,0.017,0.015,0.0148,0.0132,0.0093,0.0068,0.0058,0.0057,0.0041,0.002,0.0046,0.003,0.0031,0.0031,0.0002,-0.0001,0.0029,0.0029,0.0029,0.0028,0,0.0215,0.0225,0.0231,0.0235,0.0235,0.0241,0.0225,0.0221,0.0206,0.0192,0.0177,0.0137,0.0118,0.0101,0.0081,0.007,0.0053,0.0037,0.0026,0.0035,0.0004,0.0,0.0032,0.0031,0.0031,0.003,0,0,0.0231,0.0246,0.0249,0.0265,0.026,0.0265,0.0268,0.0266,0.0277,0.0241,0.0246,0.0203,0.0181,0.0165,0.0132,0.0105,0.0081,0.0075,0.0073,0.0055,0.0019,0.001,0.0004,0.0062,0.0062,0.0061,-0.0003,0,0.0256,0.0289,0.0286,0.0319,0.0336,0.0322,0.033,0.0324,0.0312,0.0308,0.0261,0.0251,0.0206,0.0198,0.0163,0.0104,0.0073,0.01,0.0007,0.0005,0.0001,0.0001,0.006,-0.0006,-0.0007,-0.0007,-0.0008,0,0.0279,0.0301,0.034,0.037,0.0376,0.039,0.0409,0.0416,0.04,0.0388,0.0365,0.0329,0.0286,0.0244,0.0148,0.0167,0.0101,0.0048,0.0044,0.0019,-0.0011,-0.0018,-0.0015,-0.0015,-0.0014,-0.0014,-0.0013,0,0.0302,0.0339,0.0375,0.0385,0.041,0.0427,0.0442,0.0442,0.0464,0.0447,0.0453,0.039,0.0364,0.0274,0.0161,0.0156,0.0049,0.0028,-0.0044,-0.0046,-0.0037,-0.0038,-0.0038,-0.0038,-0.0038,-0.0038,-0.0038,0,0.0328,0.0359,0.0393,0.0414,0.0463,0.0468,0.0519,0.0518,0.0534,0.0562,0.0503,0.0498,0.037,0.0292,0.0183,0.006,0.0064,-0.0037,-0.0062,-0.0019,-0.0016,-0.0041,-0.004,-0.004,-0.004,-0.0039,-0.0039,0,0.0345,0.0366,0.0414,0.0457,0.0476,0.0514,0.0578,0.0615,0.0617,0.0651,0.0649,0.0582,0.0476,0.0342,0.0191,0.0097,-0.0026,-0.0072,-0.0012,-0.0034,-0.011,-0.0106,-0.0155,-0.0156,-0.0156,-0.0157,-0.0157,0,0.0355,0.0381,0.045,0.0488,0.0512,0.0575,0.0619,0.0652,0.0692,0.0698,0.071,0.0629,0.0562,0.0349,0.0197,-0.0008,-0.0042,-0.0107,-0.0113,-0.0101,-0.0121,-0.0116,-0.0112,-0.0158,-0.0159,-0.0159,-0.0159,0,0.0375,0.04,0.0444,0.0523,0.0582,0.0656,0.072,0.0755,0.0788,0.0793,0.0763,0.0652,0.0531,0.0355,0.0196,0.0046,-0.0066,-0.0116,-0.0115,-0.0121,-0.0106,-0.0124,-0.0119,-0.0161,-0.0161,-0.0161,-0.0161,0,0.039,0.0424,0.0483,0.0555,0.0633,0.0708,0.0745,0.0787,0.0825,0.0823,0.0809,0.0677,0.0601,0.0382,0.0235,0.0088,0.0044,-0.0011,-0.0017,-0.0016,0.0037,0.0078,0.0062,0,0,0,0,0,0.0403,0.0444,0.051,0.059,0.067,0.0719,0.0798,0.0828,0.0857,0.0843,0.083,0.0716,0.05,0.0408,0.026,0.0209,0.0012,0.0028,-0.0056,-0.0175,-0.0172,-0.0135,0,0,0,0,0,0,0.0411,0.0472,0.0507,0.0607,0.0667,0.0759,0.0813,0.0836,0.0829,0.083,0.0721,0.0668,0.0462,0.0584,0.0254,0.0209,0.0132,-0.007,-0.0073,-0.0177,-0.0174,-0.0172,-0.0132,0,0,0,0,0]}]]